GW2849 Weather Reports


Display with metric or nautical units.
time (UTC)temp
F
wind
direction
speed
MPH
gust
MPH
rain 1hr
in
rain 24hr
in
rain mn
in
humidity
%
barometer
mb
20260504100601 53 238 1.0 7.0 0.00 0.00 0.00 66 1009.9
20260504100459 53 200 7.0 7.0 0.00 0.00 0.00 66 1009.8
20260504100359 53 290 2.0 5.0 0.00 0.00 0.00 66 1009.8
20260504100200 53 221 1.0 5.0 0.00 0.00 0.00 66 1009.9
20260504082002 53 148 3.0 8.0 0.00 0.00 0.00 62 1010.4
20260504081859 53 136 4.0 5.0 0.00 0.00 0.00 61 1010.4
20260504081758 53 118 2.0 4.0 0.00 0.00 0.00 62 1010.4
20260504081700 53 211 1.0 5.0 0.00 0.00 0.00 63 1010.4
20260504081600 53 204 1.0 5.0 0.00 0.00 0.00 62 1010.4
20260504081459 53 308 0.0 5.0 0.00 0.00 0.00 62 1010.4
20260504081403 53 189 0.0 5.0 0.00 0.00 0.00 62 1010.4
20260504081301 53 218 0.0 5.0 0.00 0.00 0.00 62 1010.3
20260504081200 53 243 0.0 5.0 0.00 0.00 0.00 62 1010.4
20260504081059 53 264 0.0 5.0 0.00 0.00 0.00 62 1010.4
20260504080959 53 248 2.0 5.0 0.00 0.00 0.00 62 1010.4
20260504080900 53 223 0.0 5.0 0.00 0.00 0.00 62 1010.4
20260504080659 53 211 0.0 5.0 0.00 0.00 0.00 61 1010.5
20260504080459 53 115 1.0 3.0 0.00 0.00 0.00 62 1010.5
20260504080359 53 212 2.0 3.0 0.00 0.00 0.00 62 1010.5
20260504080300 53 186 0.0 3.0 0.00 0.00 0.00 61 1010.5
20260504080203 53 162 0.0 3.0 0.00 0.00 0.00 61 1010.5
20260504070400 54 217 6.0 8.0 0.00 0.00 0.00 60 1010.9
20260504070259 54 207 3.0 8.0 0.00 0.00 0.00 60 1011.0
20260504070159 53 173 1.0 8.0 0.00 0.00 0.00 59 1010.9
20260504060159 53 132 0.0 4.0 0.00 0.00 0.00 60 1011.8
20260504050659 54 157 1.0 5.0 0.00 0.00 0.00 57 1012.1
20260504050600 54 199 1.0 5.0 0.00 0.00 0.00 58 1012.2
20260504050459 54 286 1.0 5.0 0.00 0.00 0.00 57 1012.1
20260504050357 54 287 2.0 6.0 0.00 0.00 0.00 58 1012.1
20260504050258 54 184 0.0 6.0 0.00 0.00 0.00 58 1012.1
20260504050159 54 184 0.0 6.0 0.00 0.00 0.00 58 1012.2
20260504045959 54 163 0.0 6.0 0.00 0.00 0.00 58 1012.2
20260504045901 54 296 0.0 6.0 0.00 0.00 0.00 58 1012.0
20260504045759 54 311 2.0 6.0 0.00 0.00 0.00 58 1012.2
20260504045658 54 167 1.0 6.0 0.00 0.00 0.00 57 1012.2
20260504045600 54 113 0.0 6.0 0.00 0.00 0.00 57 1012.1
20260504045458 54 227 1.0 7.0 0.00 0.00 0.00 57 1012.1
20260504045401 54 176 2.0 7.0 0.00 0.00 0.00 58 1012.1
20260504045259 54 225 3.0 4.0 0.00 0.00 0.00 58 1012.1
20260504045159 54 220 3.0 4.0 0.00 0.00 0.00 58 1012.1
20260504045059 54 201 0.0 4.0 0.00 0.00 0.00 59 1012.1
20260504045000 54 191 0.0 4.0 0.00 0.00 0.00 58 1012.1
20260504044859 54 191 0.0 7.0 0.00 0.00 0.00 58 1012.1
20260504044759 54 182 1.0 7.0 0.00 0.00 0.00 58 1012.1
20260504044658 54 321 2.0 7.0 0.00 0.00 0.00 58 1012.1
20260504044558 54 215 1.0 7.0 0.00 0.00 0.00 58 1012.2
20260504044500 53 230 1.0 7.0 0.00 0.00 0.00 58 1012.2
20260504044400 53 265 1.0 7.0 0.00 0.00 0.00 58 1012.2
20260504044059 53 185 0.0 7.0 0.00 0.00 0.00 58 1012.2
20260504043959 53 177 1.0 7.0 0.00 0.00 0.00 58 1012.2
20260504043859 53 240 0.0 7.0 0.00 0.00 0.00 58 1012.2
20260504043659 53 210 3.0 6.0 0.00 0.00 0.00 58 1012.2
20260504043559 53 194 2.0 6.0 0.00 0.00 0.00 57 1012.2
20260504043459 54 171 0.0 3.0 0.00 0.00 0.00 58 1012.2
20260504043359 53 163 0.0 3.0 0.00 0.00 0.00 58 1012.2
20260504043300 54 163 0.0 3.0 0.00 0.00 0.00 58 1012.3
20260504043203 53 163 0.0 3.0 0.00 0.00 0.00 58 1012.3
20260504043105 54 163 0.0 3.0 0.00 0.00 0.00 58 1012.2
20260504043001 54 316 0.0 5.0 0.00 0.00 0.00 58 1012.3
20260504042901 54 235 2.0 5.0 0.00 0.00 0.00 58 1012.3
20260504042801 54 215 1.0 5.0 0.00 0.00 0.00 59 1012.2
20260504042702 54 186 0.0 5.0 0.00 0.00 0.00 58 1012.3
20260504042601 54 197 1.0 5.0 0.00 0.00 0.00 58 1012.3
20260504042501 54 196 1.0 5.0 0.00 0.00 0.00 58 1012.3
20260504042401 54 351 1.0 5.0 0.00 0.00 0.00 58 1012.5
20260504042304 53 177 2.0 5.0 0.00 0.00 0.00 58 1012.5
20260504042204 54 161 1.0 6.0 0.00 0.00 0.00 58 1012.3
20260504042102 53 211 0.0 6.0 0.00 0.00 0.00 58 1012.3
20260504042002 54 130 1.0 6.0 0.00 0.00 0.00 58 1012.4
20260504041801 54 200 0.0 6.0 0.00 0.00 0.00 57 1012.4
20260504041703 53 200 0.0 6.0 0.00 0.00 0.00 58 1012.4
20260504041602 53 236 0.0 6.0 0.00 0.00 0.00 58 1012.5
20260504041501 53 150 0.0 6.0 0.00 0.00 0.00 58 1012.4
20260504041402 53 146 0.0 6.0 0.00 0.00 0.00 57 1012.4
20260504041303 53 192 5.0 6.0 0.00 0.00 0.00 57 1012.5
20260504041202 53 192 4.0 5.0 0.00 0.00 0.00 57 1012.5
20260504041101 53 210 0.0 3.0 0.00 0.00 0.00 58 1012.5
20260504041002 53 210 0.0 4.0 0.00 0.00 0.00 58 1012.5
20260504040904 53 213 1.0 4.0 0.00 0.00 0.00 59 1012.5
20260504040702 53 231 0.0 4.0 0.00 0.00 0.00 59 1012.5
20260504040602 53 231 0.0 4.0 0.00 0.00 0.00 59 1012.5
20260504040501 53 231 0.0 4.0 0.00 0.00 0.00 59 1012.5
20260504040402 53 231 0.0 4.0 0.00 0.00 0.00 59 1012.5
20260504040301 53 231 0.0 4.0 0.00 0.00 0.00 59 1012.5
20260504040202 53 231 0.0 4.0 0.00 0.00 0.00 59 1012.5
20260504040000 53 231 0.0 4.0 0.00 0.00 0.00 59 1012.5
20260504035900 53 215 1.0 4.0 0.00 0.00 0.00 59 1012.5
20260504035801 53 206 0.0 4.0 0.00 0.00 0.00 58 1012.6
20260504035701 53 207 0.0 4.0 0.00 0.00 0.00 58 1012.6
20260504035600 53 188 2.0 4.0 0.00 0.00 0.00 58 1012.6
20260504035300 53 161 0.0 4.0 0.00 0.00 0.00 59 1012.7
20260504035100 53 288 0.0 4.0 0.00 0.00 0.00 59 1012.7
20260504035000 53 288 0.0 4.0 0.00 0.00 0.00 58 1012.8
20260504034900 53 288 0.0 4.0 0.00 0.00 0.00 58 1012.7
20260504034801 53 288 0.0 4.0 0.00 0.00 0.00 58 1012.8
20260504034700 53 284 1.0 4.0 0.00 0.00 0.00 58 1012.8
20260504034601 53 28 1.0 4.0 0.00 0.00 0.00 58 1012.8
20260504034400 53 103 0.0 4.0 0.00 0.00 0.00 58 1012.9
20260504034302 53 5 0.0 2.0 0.00 0.00 0.00 58 1012.8
20260504034201 53 232 0.0 2.0 0.00 0.00 0.00 59 1012.8
20260504034001 53 232 0.0 2.0 0.00 0.00 0.00 59 1012.9
20260504033901 53 227 0.0 2.0 0.00 0.00 0.00 58 1013.0
20260504033803 53 223 0.0 2.0 0.00 0.00 0.00 59 1012.8
20260504033702 53 164 0.0 2.0 0.00 0.00 0.00 58 1013.0
20260504033601 53 96 0.0 2.0 0.00 0.00 0.00 59 1012.8
20260504033502 53 122 0.0 2.0 0.00 0.00 0.00 58 1012.9
20260504033400 53 105 0.0 2.0 0.00 0.00 0.00 58 1012.9
20260504033300 53 112 0.0 2.0 0.00 0.00 0.00 58 1012.9
20260504033202 53 112 0.0 2.0 0.00 0.00 0.00 58 1012.9
20260504033102 53 109 0.0 2.0 0.00 0.00 0.00 58 1012.9
20260504033000 53 307 1.0 2.0 0.00 0.00 0.00 58 1012.9
20260504032900 53 177 0.0 2.0 0.00 0.00 0.00 59 1012.8
20260504032800 53 176 0.0 2.0 0.00 0.00 0.00 59 1012.9
20260504032700 53 176 0.0 2.0 0.00 0.00 0.00 59 1012.9
20260504032602 53 176 0.0 2.0 0.00 0.00 0.00 59 1013.0
20260504032500 53 168 1.0 2.0 0.00 0.00 0.00 59 1013.0
20260504032201 53 202 0.0 2.0 0.00 0.00 0.00 58 1012.9
20260504032101 53 142 0.0 2.0 0.00 0.00 0.00 59 1012.9
20260504032002 53 169 0.0 2.0 0.00 0.00 0.00 59 1013.0
20260504031902 53 155 0.0 2.0 0.00 0.00 0.00 59 1012.9
20260504031800 53 155 0.0 2.0 0.00 0.00 0.00 59 1012.9
20260504031700 53 155 0.0 2.0 0.00 0.00 0.00 59 1012.9
20260504031600 53 155 2.0 5.0 0.00 0.00 0.00 59 1012.9
20260504031500 53 142 1.0 5.0 0.00 0.00 0.00 59 1012.9
20260504031401 53 142 1.0 5.0 0.00 0.00 0.00 59 1012.8
20260504031300 53 141 1.0 5.0 0.00 0.00 0.00 58 1012.9
20260504031201 53 139 1.0 5.0 0.00 0.00 0.00 59 1012.9
20260504031000 53 191 0.0 5.0 0.00 0.00 0.00 59 1012.8
20260504030900 53 191 0.0 5.0 0.00 0.00 0.00 59 1012.9
20260504030800 53 188 0.0 5.0 0.00 0.00 0.00 59 1012.8
20260504030602 53 200 0.0 0.0 0.00 0.00 0.00 59 1012.9
20260504030500 53 200 0.0 0.0 0.00 0.00 0.00 59 1012.9
20260504030404 53 176 0.0 0.0 0.00 0.00 0.00 59 1012.9
20260504030303 54 176 0.0 0.0 0.00 0.00 0.00 59 1012.9
20260504030159 54 161 0.0 0.0 0.00 0.00 0.00 59 1013.0
20260504030101 54 158 0.0 0.0 0.00 0.00 0.00 59 1012.9
20260504030000 54 158 0.0 0.0 0.00 0.00 0.00 59 1012.9
20260504025900 54 158 0.0 0.0 0.00 0.00 0.00 59 1012.9
20260504025803 54 240 0.0 0.0 0.00 0.00 0.00 59 1013.0
20260504025701 54 242 0.0 0.0 0.00 0.00 0.00 59 1013.0
20260504025501 54 263 0.0 0.0 0.00 0.00 0.00 59 1012.9
20260504025402 54 263 0.0 0.0 0.00 0.00 0.00 59 1012.8
20260504025259 54 263 0.0 0.0 0.00 0.00 0.00 59 1013.0
20260504025200 54 268 0.0 0.0 0.00 0.00 0.00 59 1012.9
20260504025100 54 215 0.0 0.0 0.00 0.00 0.00 59 1012.9
20260504024900 54 214 0.0 0.0 0.00 0.00 0.00 59 1013.0
20260504024800 54 214 0.0 0.0 0.00 0.00 0.00 59 1013.0
20260504024700 54 214 0.0 0.0 0.00 0.00 0.00 58 1013.0
20260504024559 54 214 0.0 0.0 0.00 0.00 0.00 58 1012.9
20260504024500 54 214 0.0 0.0 0.00 0.00 0.00 58 1013.0
20260504024400 54 192 0.0 0.0 0.00 0.00 0.00 58 1013.0
20260504024302 54 192 0.0 0.0 0.00 0.00 0.00 59 1013.0
20260504024203 54 192 0.0 0.0 0.00 0.00 0.00 58 1013.0
20260504024100 55 192 0.0 0.0 0.00 0.00 0.00 58 1013.0
20260504024000 55 192 0.0 0.0 0.00 0.00 0.00 59 1013.1
20260504023900 55 192 0.0 0.0 0.00 0.00 0.00 58 1013.0
20260504023801 55 192 0.0 0.0 0.00 0.00 0.00 58 1013.0
20260504023700 55 192 0.0 0.0 0.00 0.00 0.00 59 1013.1
20260504023603 55 192 0.0 0.0 0.00 0.00 0.00 57 1013.1
20260504023501 55 192 0.0 0.0 0.00 0.00 0.00 57 1013.1
20260504023400 55 192 0.0 0.0 0.00 0.00 0.00 58 1013.1
20260504023200 55 200 0.0 3.0 0.00 0.00 0.00 58 1013.1
20260504023001 55 199 0.0 3.0 0.00 0.00 0.00 58 1013.0
20260504022901 55 200 0.0 3.0 0.00 0.00 0.00 58 1013.0
20260504022800 55 168 0.0 3.0 0.00 0.00 0.00 58 1013.1
20260504022700 55 169 0.0 3.0 0.00 0.00 0.00 58 1013.0
20260504022600 55 167 0.0 3.0 0.00 0.00 0.00 58 1013.1
20260504022500 55 202 0.0 3.0 0.00 0.00 0.00 57 1013.0
20260504022400 55 219 1.0 3.0 0.00 0.00 0.00 57 1013.1
20260504022301 55 178 2.0 3.0 0.00 0.00 0.00 57 1013.0
20260504022201 55 211 0.0 2.0 0.00 0.00 0.00 57 1013.1
20260504022101 55 209 1.0 2.0 0.00 0.00 0.00 57 1013.1
20260504022001 55 223 1.0 2.0 0.00 0.00 0.00 57 1013.1
20260504021800 55 266 0.0 3.0 0.00 0.00 0.00 57 1013.0
20260504021700 55 221 2.0 3.0 0.00 0.00 0.00 57 1013.0
20260504021600 55 226 0.0 3.0 0.00 0.00 0.00 57 1013.0
20260504021500 55 209 0.0 4.0 0.00 0.00 0.00 58 1013.0
20260504021402 55 209 0.0 4.0 0.00 0.00 0.00 57 1013.1
20260504021300 55 248 0.0 4.0 0.00 0.00 0.00 57 1013.0
20260504021201 54 249 0.0 4.0 0.00 0.00 0.00 56 1012.9
20260504021100 55 234 2.0 4.0 0.00 0.00 0.00 57 1012.9
20260504021000 55 216 1.0 4.0 0.00 0.00 0.00 57 1012.8
20260504020800 55 203 0.0 4.0 0.00 0.00 0.00 58 1012.8
20260504020702 54 198 1.0 4.0 0.00 0.00 0.00 56 1012.8
20260504020600 55 234 0.0 4.0 0.00 0.00 0.00 57 1012.7
20260504020500 54 220 2.0 4.0 0.00 0.00 0.00 58 1012.9
20260504020400 55 219 0.0 4.0 0.00 0.00 0.00 58 1012.8
20260504020302 55 219 0.0 4.0 0.00 0.00 0.00 58 1012.8
20260504020200 55 152 0.0 4.0 0.00 0.00 0.00 58 1012.7
20260504015900 55 257 0.0 4.0 0.00 0.00 0.00 58 1012.6
20260504015701 55 259 0.0 4.0 0.00 0.00 0.00 57 1012.7
20260504015600 55 219 1.0 4.0 0.00 0.00 0.00 59 1012.7
20260504015400 55 200 0.0 2.0 0.00 0.00 0.00 58 1012.8
20260504015301 55 200 0.0 2.0 0.00 0.00 0.00 58 1012.8
20260504015202 55 200 0.0 2.0 0.00 0.00 0.00 57 1012.9
20260504015102 55 178 1.0 2.0 0.00 0.00 0.00 57 1012.9
20260504015001 55 165 2.0 4.0 0.00 0.00 0.00 58 1012.8
20260504014800 55 181 0.0 4.0 0.00 0.00 0.00 58 1012.9
20260504014701 55 184 1.0 4.0 0.00 0.00 0.00 58 1012.8
20260504014600 55 176 0.0 4.0 0.00 0.00 0.00 58 1012.7
20260504014301 55 150 0.0 4.0 0.00 0.00 0.00 58 1012.7
20260504014200 55 126 2.0 5.0 0.00 0.00 0.00 59 1012.7
20260504014101 55 179 0.0 2.0 0.00 0.00 0.00 58 1012.7
20260504014000 55 179 0.0 2.0 0.00 0.00 0.00 58 1012.7
20260504013901 55 179 0.0 3.0 0.00 0.00 0.00 59 1012.7
20260504013800 55 179 0.0 3.0 0.00 0.00 0.00 59 1012.7
20260504013700 55 179 0.0 3.0 0.00 0.00 0.00 58 1012.7
20260504013601 55 179 0.0 3.0 0.00 0.00 0.00 58 1012.7
20260504013500 55 185 1.0 3.0 0.00 0.00 0.00 57 1012.7
20260504013402 55 212 0.0 3.0 0.00 0.00 0.00 58 1012.6
20260504013301 55 212 0.0 3.0 0.00 0.00 0.00 57 1012.7
20260504013200 55 212 1.0 3.0 0.00 0.00 0.00 57 1012.7
20260504013001 55 226 1.0 2.0 0.00 0.00 0.00 57 1012.8
20260504012901 55 229 1.0 2.0 0.00 0.00 0.00 57 1012.7
20260504012700 55 191 0.0 2.0 0.00 0.00 0.00 58 1012.7
20260504012601 55 198 0.0 2.0 0.00 0.00 0.00 58 1012.7
20260504012400 55 163 0.0 5.0 0.00 0.00 0.00 57 1012.6
20260504012300 55 163 0.0 5.0 0.00 0.00 0.00 57 1012.6
20260504012200 55 163 1.0 5.0 0.00 0.00 0.00 56 1012.6
20260504012103 55 163 0.0 5.0 0.00 0.00 0.00 56 1012.6
20260504011901 56 163 0.0 5.0 0.00 0.00 0.00 56 1012.5
20260504011801 56 156 0.0 5.0 0.00 0.00 0.00 57 1012.5
20260504011700 56 149 2.0 5.0 0.00 0.00 0.00 56 1012.6
20260504011600 56 165 1.0 5.0 0.00 0.00 0.00 56 1012.5
20260504011502 56 202 2.0 3.0 0.00 0.00 0.00 56 1012.5
20260504011400 56 136 1.0 3.0 0.00 0.00 0.00 56 1012.6
20260504011300 56 140 1.0 3.0 0.00 0.00 0.00 57 1012.5
20260504011200 56 207 0.0 3.0 0.00 0.00 0.00 56 1012.6
20260504011002 56 234 2.0 3.0 0.00 0.00 0.00 56 1012.6
20260504010900 56 186 1.0 3.0 0.00 0.00 0.00 56 1012.7
20260504010801 56 355 0.0 3.0 0.00 0.00 0.00 56 1012.8
20260504010700 56 321 1.0 5.0 0.00 0.00 0.00 55 1012.8
20260504010559 56 213 2.0 5.0 0.00 0.00 0.00 55 1012.7
20260504010501 57 240 1.0 5.0 0.00 0.00 0.00 56 1012.7
20260504010402 57 259 3.0 5.0 0.00 0.00 0.00 57 1012.5
20260504010300 57 106 1.0 5.0 0.00 0.00 0.00 55 1012.6
20260504010200 57 153 0.0 5.0 0.00 0.00 0.00 54 1012.6
20260504010004 57 169 1.0 5.0 0.00 0.00 0.00 53 1012.6
20260504005903 57 186 0.0 6.0 0.00 0.00 0.00 52 1012.8
20260504005800 57 198 4.0 6.0 0.00 0.00 0.00 52 1012.9
20260504005700 57 213 5.0 6.0 0.00 0.00 0.00 52 1012.9
20260504005600 57 136 2.0 6.0 0.00 0.00 0.00 52 1012.9
20260504005501 57 174 2.0 6.0 0.00 0.00 0.00 51 1012.9
20260504005300 57 207 3.0 9.0 0.00 0.00 0.00 49 1012.9
20260504005200 57 252 2.0 9.0 0.00 0.00 0.00 50 1013.0
20260504005102 58 217 0.0 9.0 0.00 0.00 0.00 50 1013.0
20260504005002 58 184 6.0 9.0 0.00 0.00 0.00 49 1013.1
20260504004901 58 200 2.0 9.0 0.00 0.00 0.00 47 1013.0
20260504004801 58 255 3.0 9.0 0.00 0.00 0.00 46 1013.1
20260504004700 58 206 2.0 9.0 0.00 0.00 0.00 47 1013.0
20260504004600 58 222 1.0 7.0 0.00 0.00 0.00 47 1012.9
20260504004500 58 325 1.0 7.0 0.00 0.00 0.00 47 1013.0
20260504004400 58 226 2.0 7.0 0.00 0.00 0.00 46 1013.0
20260504004200 58 63 2.0 7.0 0.00 0.00 0.00 46 1012.9
20260504004101 58 202 0.0 7.0 0.00 0.00 0.00 47 1013.0
20260504003900 58 225 4.0 7.0 0.00 0.00 0.00 46 1013.0
20260504003800 58 202 7.0 8.0 0.00 0.00 0.00 46 1012.9
20260504003701 58 264 2.0 8.0 0.00 0.00 0.00 46 1012.9
20260504003600 58 209 3.0 8.0 0.00 0.00 0.00 45 1012.8
20260504003459 58 199 3.0 8.0 0.00 0.00 0.00 45 1012.9
20260504003400 58 222 2.0 8.0 0.00 0.00 0.00 45 1012.9
20260504003300 58 211 4.0 8.0 0.00 0.00 0.00 46 1012.9
20260504003202 58 342 2.0 8.0 0.00 0.00 0.00 45 1012.8
20260504003101 58 135 2.0 8.0 0.00 0.00 0.00 45 1012.9
20260504003000 58 178 4.0 8.0 0.00 0.00 0.00 45 1012.9
20260504002900 58 212 6.0 8.0 0.00 0.00 0.00 46 1012.8
20260504002801 58 262 0.0 6.0 0.00 0.00 0.00 46 1012.8
20260504002701 58 265 0.0 7.0 0.00 0.00 0.00 45 1012.7
20260504002600 58 276 1.0 7.0 0.00 0.00 0.00 45 1012.9
20260504002500 58 234 1.0 7.0 0.00 0.00 0.00 45 1012.8
20260504002400 58 227 0.0 7.0 0.00 0.00 0.00 44 1012.8
20260504002303 58 255 1.0 7.0 0.00 0.00 0.00 44 1012.9
20260504002202 58 181 0.0 7.0 0.00 0.00 0.00 44 1012.9
20260504002100 58 213 0.0 7.0 0.00 0.00 0.00 43 1013.0
20260504001900 58 167 5.0 8.0 0.00 0.00 0.00 43 1013.0
20260504001800 58 298 1.0 7.0 0.00 0.00 0.00 43 1013.0
20260504001701 59 207 2.0 7.0 0.00 0.00 0.00 43 1012.9
20260504001600 59 215 2.0 7.0 0.00 0.00 0.00 43 1013.0
20260504001500 59 213 1.0 7.0 0.00 0.00 0.00 43 1013.0
20260504001401 59 210 1.0 7.0 0.00 0.00 0.00 43 1012.8
20260504001301 59 175 0.0 7.0 0.00 0.00 0.00 43 1012.8
20260504001200 59 299 1.0 7.0 0.00 0.00 0.00 42 1012.8
20260504000959 59 192 3.0 6.0 0.00 0.00 0.00 43 1012.8
20260504000902 59 185 0.0 6.0 0.00 0.00 0.00 42 1012.8
20260504000803 59 86 1.0 6.0 0.00 0.00 0.00 42 1012.7
20260504000701 59 202 4.0 6.0 0.00 0.00 0.00 42 1012.7
20260504000600 59 215 1.0 6.0 0.00 0.00 0.00 43 1012.7
20260504000501 59 171 1.0 6.0 0.00 0.00 0.00 42 1012.7
20260504000402 59 186 0.0 5.0 0.00 0.00 0.00 42 1012.6
20260504000301 59 134 1.0 5.0 0.00 0.00 0.00 42 1012.6
20260504000101 59 58 2.0 5.0 0.00 0.00 0.00 42 1012.6
20260503235901 59 207 1.0 5.0 0.00 0.00 0.00 42 1012.6
20260503235801 59 148 0.0 6.0 0.00 0.00 0.00 41 1012.5
20260503235701 59 255 3.0 6.0 0.00 0.00 0.00 42 1012.5
20260503235600 59 101 1.0 6.0 0.00 0.00 0.00 42 1012.5
20260503235502 59 242 0.0 6.0 0.00 0.00 0.00 42 1012.5
20260503235300 59 141 1.0 6.0 0.00 0.00 0.00 42 1012.4
20260503235100 59 93 1.0 6.0 0.00 0.00 0.00 41 1012.4
20260503235000 59 134 3.0 6.0 0.00 0.00 0.00 41 1012.5
20260503234900 59 155 2.0 7.0 0.00 0.00 0.00 41 1012.5
20260503234800 59 158 2.0 7.0 0.00 0.00 0.00 41 1012.5
20260503234702 59 246 2.0 7.0 0.00 0.00 0.00 42 1012.6
20260503234600 59 12 2.0 7.0 0.00 0.00 0.00 41 1012.6
20260503234459 59 196 4.0 7.0 0.00 0.00 0.00 41 1012.6
20260503234300 59 241 0.0 4.0 0.00 0.00 0.00 41 1012.5
20260503234200 59 305 0.0 4.0 0.00 0.00 0.00 41 1012.6
20260503234101 59 197 0.0 4.0 0.00 0.00 0.00 40 1012.6
20260503234001 59 146 1.0 4.0 0.00 0.00 0.00 40 1012.5
20260503233900 59 209 2.0 5.0 0.00 0.00 0.00 41 1012.5
20260503233801 59 171 0.0 5.0 0.00 0.00 0.00 42 1012.5
20260503233700 59 221 0.0 5.0 0.00 0.00 0.00 42 1012.5
20260503233601 60 360 1.0 5.0 0.00 0.00 0.00 42 1012.5
20260503233501 59 182 1.0 5.0 0.00 0.00 0.00 40 1012.5
20260503233401 60 119 2.0 7.0 0.00 0.00 0.00 42 1012.5
20260503233300 60 197 0.0 7.0 0.00 0.00 0.00 41 1012.6
20260503233200 60 198 1.0 7.0 0.00 0.00 0.00 41 1012.5
20260503233102 60 189 2.0 7.0 0.00 0.00 0.00 41 1012.4
20260503233000 60 84 0.0 7.0 0.00 0.00 0.00 41 1012.4
20260503232901 60 148 0.0 7.0 0.00 0.00 0.00 41 1012.4
20260503232801 60 257 0.0 7.0 0.00 0.00 0.00 42 1012.4
20260503232700 60 143 1.0 7.0 0.00 0.00 0.00 41 1012.5
20260503232501 60 146 5.0 8.0 0.00 0.00 0.00 41 1012.5
20260503232400 60 250 0.0 8.0 0.00 0.00 0.00 41 1012.6
20260503232305 60 289 2.0 8.0 0.00 0.00 0.00 41 1012.6
20260503232201 60 163 5.0 8.0 0.00 0.00 0.00 41 1012.6
20260503232100 60 201 1.0 8.0 0.00 0.00 0.00 41 1012.7
20260503232001 60 196 0.0 8.0 0.00 0.00 0.00 41 1012.7
20260503231901 60 165 4.0 8.0 0.00 0.00 0.00 41 1012.7
20260503231801 60 146 1.0 8.0 0.00 0.00 0.00 41 1012.8
20260503231703 60 135 3.0 5.0 0.00 0.00 0.00 40 1012.8
20260503231601 60 209 0.0 5.0 0.00 0.00 0.00 40 1012.9
20260503231500 60 53 1.0 5.0 0.00 0.00 0.00 41 1013.0
20260503231401 60 194 2.0 8.0 0.00 0.00 0.00 40 1013.0
20260503231300 60 144 3.0 8.0 0.00 0.00 0.00 41 1013.1
20260503231201 60 209 2.0 8.0 0.00 0.00 0.00 40 1013.2
20260503231103 60 275 1.0 8.0 0.00 0.00 0.00 41 1013.2
20260503231001 60 200 2.0 8.0 0.00 0.00 0.00 40 1013.3
20260503230901 60 213 0.0 8.0 0.00 0.00 0.00 41 1013.2
20260503230700 60 151 2.0 8.0 0.00 0.00 0.00 40 1013.2
20260503230501 60 240 1.0 8.0 0.00 0.00 0.00 40 1013.2
20260503230300 60 157 2.0 7.0 0.00 0.00 0.00 40 1013.2
20260503230202 60 213 3.0 7.0 0.00 0.00 0.00 39 1013.2
20260503230101 60 138 2.0 7.0 0.00 0.00 0.00 41 1013.3
20260503230000 60 219 0.0 7.0 0.00 0.00 0.00 40 1013.3
20260503225902 60 257 0.0 7.0 0.00 0.00 0.00 40 1013.3
20260503225800 60 249 3.0 7.0 0.00 0.00 0.00 40 1013.3
20260503225700 60 162 0.0 7.0 0.00 0.00 0.00 40 1013.3
20260503225601 60 281 2.0 7.0 0.00 0.00 0.00 40 1013.3
20260503225500 60 231 1.0 7.0 0.00 0.00 0.00 39 1013.3
20260503225401 60 236 6.0 7.0 0.00 0.00 0.00 40 1013.3
20260503225301 60 191 3.0 7.0 0.00 0.00 0.00 39 1013.3
20260503225201 60 238 4.0 8.0 0.00 0.00 0.00 40 1013.3
20260503225101 60 167 4.0 8.0 0.00 0.00 0.00 40 1013.4
20260503225001 60 227 3.0 8.0 0.00 0.00 0.00 40 1013.4
20260503224900 60 303 2.0 8.0 0.00 0.00 0.00 40 1013.5
20260503224800 60 213 2.0 8.0 0.00 0.00 0.00 39 1013.4
20260503224700 60 121 4.0 8.0 0.00 0.00 0.00 40 1013.4
20260503224500 60 231 1.0 10.0 0.00 0.00 0.00 40 1013.5
20260503224401 60 160 0.0 10.0 0.00 0.00 0.00 40 1013.5
20260503224300 60 193 4.0 10.0 0.00 0.00 0.00 39 1013.6
20260503224201 60 144 3.0 10.0 0.00 0.00 0.00 40 1013.6
20260503224100 60 192 2.0 10.0 0.00 0.00 0.00 40 1013.7
20260503223902 60 134 5.0 10.0 0.00 0.00 0.00 40 1013.6
20260503223801 60 269 2.0 10.0 0.00 0.00 0.00 40 1013.6
20260503223501 60 193 0.0 9.0 0.00 0.00 0.00 39 1013.7
20260503223400 60 184 2.0 9.0 0.00 0.00 0.00 39 1013.7
20260503223300 60 217 3.0 9.0 0.00 0.00 0.00 40 1013.7
20260503223102 60 165 1.0 9.0 0.00 0.00 0.00 40 1013.8
20260503223001 60 200 1.0 9.0 0.00 0.00 0.00 39 1013.7
20260503222901 60 130 3.0 8.0 0.00 0.00 0.00 40 1013.8
20260503222800 60 215 0.0 9.0 0.00 0.00 0.00 40 1013.7
20260503222700 60 163 0.0 9.0 0.00 0.00 0.00 40 1013.6
20260503222600 60 196 0.0 9.0 0.00 0.00 0.00 40 1013.6
20260503222501 60 129 1.0 9.0 0.00 0.00 0.00 38 1013.6
20260503222400 60 226 2.0 9.0 0.00 0.00 0.00 38 1013.6
20260503222301 61 188 3.0 10.0 0.00 0.00 0.00 38 1013.7
20260503222200 61 317 3.0 10.0 0.00 0.00 0.00 38 1013.7
20260503222102 61 193 0.0 10.0 0.00 0.00 0.00 38 1013.7
20260503222001 61 221 8.0 10.0 0.00 0.00 0.00 38 1013.7
20260503221701 61 158 1.0 10.0 0.00 0.00 0.00 39 1013.8
20260503221601 61 203 2.0 10.0 0.00 0.00 0.00 39 1013.8
20260503221401 61 175 3.0 9.0 0.00 0.00 0.00 39 1013.9
20260503221300 61 200 5.0 10.0 0.00 0.00 0.00 40 1013.9
20260503221202 61 171 6.0 9.0 0.00 0.00 0.00 40 1013.9
20260503221101 61 208 0.0 9.0 0.00 0.00 0.00 40 1013.8
20260503221000 61 188 1.0 9.0 0.00 0.00 0.00 39 1013.9
20260503220900 61 258 2.0 9.0 0.00 0.00 0.00 38 1013.9
20260503220802 61 192 3.0 9.0 0.00 0.00 0.00 37 1013.9
20260503220700 61 201 2.0 9.0 0.00 0.00 0.00 39 1014.0
20260503220600 62 195 2.0 9.0 0.00 0.00 0.00 38 1014.0
20260503220501 62 232 1.0 13.0 0.00 0.00 0.00 37 1013.9
20260503220400 62 204 7.0 13.0 0.00 0.00 0.00 38 1014.0
20260503220301 62 195 1.0 13.0 0.00 0.00 0.00 38 1013.9
20260503220200 62 222 7.0 13.0 0.00 0.00 0.00 38 1014.0
20260503220100 62 193 5.0 13.0 0.00 0.00 0.00 38 1014.0
20260503220003 61 209 5.0 13.0 0.00 0.00 0.00 39 1014.1
20260503215901 61 205 5.0 13.0 0.00 0.00 0.00 39 1014.0
20260503215800 61 189 5.0 13.0 0.00 0.00 0.00 40 1014.0
20260503215700 61 201 2.0 13.0 0.00 0.00 0.00 38 1014.1
20260503215600 61 145 10.0 14.0 0.00 0.00 0.00 39 1014.2
20260503215401 61 196 1.0 12.0 0.00 0.00 0.00 39 1014.2
20260503215301 61 203 0.0 12.0 0.00 0.00 0.00 38 1014.2
20260503215200 61 219 2.0 12.0 0.00 0.00 0.00 37 1014.2
20260503215100 61 240 3.0 12.0 0.00 0.00 0.00 38 1014.1
20260503215000 61 226 5.0 14.0 0.00 0.00 0.00 38 1014.2
20260503214900 61 177 4.0 12.0 0.00 0.00 0.00 38 1014.2
20260503214800 61 342 2.0 12.0 0.00 0.00 0.00 38 1014.2
20260503214701 61 189 4.0 12.0 0.00 0.00 0.00 37 1014.2
20260503214601 61 180 6.0 12.0 0.00 0.00 0.00 38 1014.2
20260503214500 61 231 1.0 12.0 0.00 0.00 0.00 37 1014.3
20260503214400 62 185 9.0 12.0 0.00 0.00 0.00 38 1014.1
20260503214300 62 202 3.0 9.0 0.00 0.00 0.00 39 1014.1
20260503214202 62 275 1.0 9.0 0.00 0.00 0.00 38 1014.1
20260503214100 61 275 6.0 9.0 0.00 0.00 0.00 39 1014.1
20260503214000 61 203 2.0 9.0 0.00 0.00 0.00 38 1014.1
20260503213900 61 192 3.0 9.0 0.00 0.00 0.00 39 1014.1
20260503213800 61 306 3.0 8.0 0.00 0.00 0.00 38 1014.1
20260503213601 61 190 8.0 8.0 0.00 0.00 0.00 39 1014.2
20260503213500 61 165 5.0 7.0 0.00 0.00 0.00 38 1014.2
20260503213401 61 194 4.0 7.0 0.00 0.00 0.00 39 1014.2
20260503213300 62 205 2.0 7.0 0.00 0.00 0.00 39 1014.0
20260503213200 62 159 4.0 7.0 0.00 0.00 0.00 38 1014.0
20260503213100 62 120 3.0 7.0 0.00 0.00 0.00 38 1014.0
20260503213001 62 164 1.0 7.0 0.00 0.00 0.00 37 1014.0
20260503212902 62 333 0.0 10.0 0.00 0.00 0.00 38 1014.1
20260503212759 62 218 2.0 10.0 0.00 0.00 0.00 40 1014.2
20260503212700 62 229 0.0 10.0 0.00 0.00 0.00 40 1014.2
20260503212600 62 213 2.0 10.0 0.00 0.00 0.00 39 1014.2
20260503212502 62 127 1.0 10.0 0.00 0.00 0.00 38 1014.2
20260503212400 62 86 0.0 10.0 0.00 0.00 0.00 38 1014.2
20260503212301 62 249 1.0 10.0 0.00 0.00 0.00 40 1014.3
20260503212201 62 210 7.0 10.0 0.00 0.00 0.00 41 1014.3
20260503212100 62 142 2.0 10.0 0.00 0.00 0.00 39 1014.3
20260503212000 62 186 6.0 9.0 0.00 0.00 0.00 38 1014.4
20260503211801 62 201 1.0 9.0 0.00 0.00 0.00 39 1014.3
20260503211701 61 202 2.0 9.0 0.00 0.00 0.00 40 1014.3
20260503211359 61 279 3.0 8.0 0.00 0.00 0.00 40 1014.5
20260503211302 61 331 2.0 8.0 0.00 0.00 0.00 39 1014.5
20260503211200 61 292 2.0 8.0 0.00 0.00 0.00 41 1014.5
20260503211101 61 144 1.0 8.0 0.00 0.00 0.00 40 1014.6
20260503211000 61 257 1.0 8.0 0.00 0.00 0.00 41 1014.6
20260503210900 61 205 1.0 8.0 0.00 0.00 0.00 38 1014.4
20260503210701 61 139 7.0 7.0 0.00 0.00 0.00 38 1014.6
20260503210559 61 296 2.0 6.0 0.00 0.00 0.00 40 1014.7
20260503210502 61 208 0.0 10.0 0.00 0.00 0.00 40 1014.7
20260503210400 61 171 1.0 10.0 0.00 0.00 0.00 40 1014.9
20260503210300 61 203 0.0 10.0 0.00 0.00 0.00 40 1014.9
20260503210003 61 190 0.0 10.0 0.00 0.00 0.00 39 1014.9
20260503205659 61 351 2.0 10.0 0.00 0.00 0.00 39 1015.0
20260503205602 61 221 2.0 7.0 0.00 0.00 0.00 38 1015.0
20260503205500 61 181 4.0 7.0 0.00 0.00 0.00 38 1015.0
20260503205303 61 68 1.0 7.0 0.00 0.00 0.00 38 1014.9
20260503205201 61 163 2.0 9.0 0.00 0.00 0.00 41 1014.9
20260503205100 61 207 2.0 9.0 0.00 0.00 0.00 39 1014.9
20260503205004 61 109 1.0 9.0 0.00 0.00 0.00 39 1014.9
20260503204800 61 326 2.0 9.0 0.00 0.00 0.00 41 1014.9
20260503204605 61 323 1.0 9.0 0.00 0.00 0.00 39 1015.0
20260503204501 62 142 2.0 9.0 0.00 0.00 0.00 38 1015.0
20260503204402 62 184 2.0 9.0 0.00 0.00 0.00 39 1015.0
20260503204302 62 202 1.0 7.0 0.00 0.00 0.00 41 1015.0
20260503204200 62 227 0.0 7.0 0.00 0.00 0.00 40 1015.1
20260503204059 62 154 1.0 10.0 0.00 0.00 0.00 38 1014.9
20260503203900 62 194 3.0 10.0 0.00 0.00 0.00 38 1015.0
20260503203801 62 257 0.0 10.0 0.00 0.00 0.00 38 1014.9
20260503203700 62 232 3.0 10.0 0.00 0.00 0.00 39 1014.9
20260503203602 62 140 1.0 10.0 0.00 0.00 0.00 38 1015.0
20260503203501 62 144 3.0 10.0 0.00 0.00 0.00 37 1015.0
20260503203301 63 108 1.0 10.0 0.00 0.00 0.00 37 1015.0
20260503203200 63 148 3.0 11.0 0.00 0.00 0.00 38 1015.0
20260503203100 63 179 4.0 10.0 0.00 0.00 0.00 38 1015.0
20260503202801 63 244 2.0 7.0 0.00 0.00 0.00 37 1015.0
20260503202700 63 340 1.0 7.0 0.00 0.00 0.00 38 1014.9
20260503202601 63 312 2.0 7.0 0.00 0.00 0.00 38 1014.9
20260503202402 63 174 2.0 6.0 0.00 0.00 0.00 39 1014.8
20260503202300 63 108 0.0 6.0 0.00 0.00 0.00 41 1014.9
20260503202201 63 230 1.0 6.0 0.00 0.00 0.00 39 1014.9
20260503202059 63 169 1.0 7.0 0.00 0.00 0.00 37 1015.0
20260503202000 63 214 2.0 7.0 0.00 0.00 0.00 39 1014.9
20260503201901 63 300 1.0 7.0 0.00 0.00 0.00 39 1014.9
20260503201800 62 194 3.0 7.0 0.00 0.00 0.00 39 1015.0
20260503201701 62 227 1.0 7.0 0.00 0.00 0.00 38 1015.0
20260503201601 62 198 4.0 10.0 0.00 0.00 0.00 40 1015.0
20260503201500 62 27 0.0 11.0 0.00 0.00 0.00 38 1015.1
20260503201401 62 183 4.0 11.0 0.00 0.00 0.00 38 1015.1
20260503201301 62 142 1.0 11.0 0.00 0.00 0.00 37 1015.1
20260503201200 62 208 3.0 11.0 0.00 0.00 0.00 38 1015.2
20260503201102 62 199 2.0 11.0 0.00 0.00 0.00 37 1015.1
20260503201001 62 178 4.0 11.0 0.00 0.00 0.00 38 1015.0
20260503200800 63 187 4.0 11.0 0.00 0.00 0.00 38 1015.2
20260503200701 63 198 8.0 11.0 0.00 0.00 0.00 41 1015.1
20260503200601 62 202 4.0 9.0 0.00 0.00 0.00 41 1015.2
20260503200302 62 153 3.0 9.0 0.00 0.00 0.00 38 1015.2
20260503200200 62 153 3.0 9.0 0.00 0.00 0.00 39 1015.3
20260503200100 62 207 0.0 5.0 0.00 0.00 0.00 38 1015.3
20260503200005 62 202 2.0 5.0 0.00 0.00 0.00 39 1015.3
20260503195901 62 132 2.0 5.0 0.00 0.00 0.00 39 1015.2
20260503195759 62 173 2.0 5.0 0.00 0.00 0.00 40 1015.3
20260503195602 62 179 3.0 7.0 0.00 0.00 0.00 41 1015.3
20260503195501 61 341 2.0 8.0 0.00 0.00 0.00 40 1015.3
20260503195401 61 148 1.0 8.0 0.00 0.00 0.00 39 1015.3
20260503195300 61 145 4.0 11.0 0.00 0.00 0.00 40 1015.3
20260503195201 61 159 2.0 11.0 0.00 0.00 0.00 41 1015.3
20260503195100 61 144 0.0 11.0 0.00 0.00 0.00 39 1015.3
20260503195000 61 150 4.0 11.0 0.00 0.00 0.00 38 1015.4
20260503194901 61 178 4.0 11.0 0.00 0.00 0.00 40 1015.4
20260503194800 61 260 2.0 11.0 0.00 0.00 0.00 40 1015.5
20260503194700 61 308 4.0 11.0 0.00 0.00 0.00 38 1015.5
20260503194601 61 198 3.0 11.0 0.00 0.00 0.00 38 1015.4
20260503194501 61 208 8.0 11.0 0.00 0.00 0.00 39 1015.4
20260503194401 61 154 6.0 10.0 0.00 0.00 0.00 39 1015.4
20260503194300 61 284 1.0 9.0 0.00 0.00 0.00 38 1015.4
20260503194200 61 217 2.0 8.0 0.00 0.00 0.00 40 1015.5
20260503194103 61 191 0.0 8.0 0.00 0.00 0.00 40 1015.5
20260503194001 61 171 7.0 8.0 0.00 0.00 0.00 39 1015.5
20260503193901 61 179 2.0 8.0 0.00 0.00 0.00 38 1015.5
20260503193800 61 109 2.0 8.0 0.00 0.00 0.00 39 1015.7
20260503193703 61 202 4.0 8.0 0.00 0.00 0.00 38 1015.7
20260503193602 61 137 3.0 15.0 0.00 0.00 0.00 39 1015.7
20260503193500 61 306 2.0 15.0 0.00 0.00 0.00 38 1015.8
20260503193401 61 208 2.0 15.0 0.00 0.00 0.00 37 1015.9
20260503193300 61 252 2.0 15.0 0.00 0.00 0.00 38 1015.9
20260503193200 61 299 4.0 15.0 0.00 0.00 0.00 38 1015.9
20260503193000 61 300 3.0 15.0 0.00 0.00 0.00 37 1016.0
20260503192902 61 132 1.0 15.0 0.00 0.00 0.00 38 1016.0
20260503192802 61 313 2.0 15.0 0.00 0.00 0.00 36 1016.1
20260503192700 62 183 8.0 10.0 0.00 0.00 0.00 39 1016.0
20260503192600 62 200 2.0 10.0 0.00 0.00 0.00 37 1016.0
20260503192459 62 210 8.0 10.0 0.00 0.00 0.00 37 1016.1
20260503192400 62 207 4.0 10.0 0.00 0.00 0.00 37 1016.1
20260503192301 62 316 2.0 10.0 0.00 0.00 0.00 38 1016.1
20260503192200 62 190 1.0 11.0 0.00 0.00 0.00 38 1016.2
20260503192059 62 218 1.0 9.0 0.00 0.00 0.00 37 1016.2
20260503191801 62 140 0.0 8.0 0.00 0.00 0.00 37 1016.2
20260503191700 62 227 2.0 8.0 0.00 0.00 0.00 38 1016.2
20260503191600 62 217 3.0 8.0 0.00 0.00 0.00 36 1016.1
20260503191501 62 168 6.0 10.0 0.00 0.00 0.00 36 1016.2
20260503191301 63 235 1.0 12.0 0.00 0.00 0.00 38 1016.1
20260503191200 63 196 3.0 12.0 0.00 0.00 0.00 36 1016.2
20260503191101 63 218 6.0 12.0 0.00 0.00 0.00 35 1016.2
20260503191002 63 98 1.0 12.0 0.00 0.00 0.00 36 1016.2
20260503190901 63 344 1.0 12.0 0.00 0.00 0.00 36 1016.3
20260503190800 63 219 1.0 12.0 0.00 0.00 0.00 37 1016.2
20260503190700 63 214 2.0 12.0 0.00 0.00 0.00 37 1016.3
20260503190600 63 198 4.0 12.0 0.00 0.00 0.00 38 1016.2
20260503190400 63 165 5.0 10.0 0.00 0.00 0.00 38 1016.3
20260503190300 63 211 3.0 10.0 0.00 0.00 0.00 36 1016.4
20260503190201 63 176 4.0 10.0 0.00 0.00 0.00 38 1016.5
20260503190101 63 175 3.0 10.0 0.00 0.00 0.00 37 1016.4
20260503190001 63 162 2.0 10.0 0.00 0.00 0.00 36 1016.5
20260503185859 63 187 1.0 10.0 0.00 0.00 0.00 38 1016.4
20260503185802 63 92 3.0 12.0 0.00 0.00 0.00 38 1016.3
20260503185701 63 286 10.0 12.0 0.00 0.00 0.00 39 1016.4
20260503185604 63 136 3.0 12.0 0.00 0.00 0.00 41 1016.4
20260503185501 63 298 4.0 12.0 0.00 0.00 0.00 43 1016.4
20260503185401 62 157 0.0 12.0 0.00 0.00 0.00 42 1016.4
20260503185300 62 185 1.0 12.0 0.00 0.00 0.00 41 1016.2
20260503185159 62 178 4.0 12.0 0.00 0.00 0.00 38 1016.3
20260503185102 62 166 1.0 12.0 0.00 0.00 0.00 35 1016.2
20260503185000 62 148 10.0 13.0 0.00 0.00 0.00 37 1016.4
20260503184901 62 167 4.0 6.0 0.00 0.00 0.00 39 1016.4
20260503184803 62 161 1.0 6.0 0.00 0.00 0.00 38 1016.5
20260503184700 62 174 2.0 7.0 0.00 0.00 0.00 37 1016.6
20260503184600 62 174 2.0 7.0 0.00 0.00 0.00 37 1016.6
20260503184501 62 198 3.0 9.0 0.00 0.00 0.00 40 1016.6
20260503184400 62 191 3.0 9.0 0.00 0.00 0.00 39 1016.6
20260503184301 62 136 3.0 9.0 0.00 0.00 0.00 39 1016.6
20260503184201 62 198 4.0 9.0 0.00 0.00 0.00 38 1016.6
20260503184102 62 216 3.0 9.0 0.00 0.00 0.00 40 1016.6
20260503183901 62 311 1.0 9.0 0.00 0.00 0.00 37 1016.7
20260503183802 62 192 6.0 11.0 0.00 0.00 0.00 38 1016.7
20260503183700 62 185 4.0 11.0 0.00 0.00 0.00 39 1016.8
20260503183600 62 275 2.0 11.0 0.00 0.00 0.00 39 1016.8
20260503183500 62 233 8.0 11.0 0.00 0.00 0.00 42 1016.7
20260503183300 61 205 1.0 11.0 0.00 0.00 0.00 41 1016.8
20260503183201 61 148 3.0 11.0 0.00 0.00 0.00 40 1016.7
20260503183000 61 251 3.0 11.0 0.00 0.00 0.00 38 1016.9
20260503182859 61 221 7.0 7.0 0.00 0.00 0.00 40 1016.8
20260503182800 61 187 1.0 7.0 0.00 0.00 0.00 41 1016.7
20260503182559 61 195 5.0 7.0 0.00 0.00 0.00 40 1016.8
20260503182500 61 206 0.0 7.0 0.00 0.00 0.00 42 1016.8
20260503182402 61 202 2.0 7.0 0.00 0.00 0.00 39 1016.7
20260503182304 61 195 2.0 10.0 0.00 0.00 0.00 39 1016.9
20260503182200 61 222 0.0 10.0 0.00 0.00 0.00 38 1016.9
20260503182102 61 146 2.0 10.0 0.00 0.00 0.00 39 1016.9
20260503182000 61 346 3.0 10.0 0.00 0.00 0.00 37 1016.9
20260503181901 61 329 1.0 10.0 0.00 0.00 0.00 39 1016.9
20260503181759 61 171 2.0 10.0 0.00 0.00 0.00 40 1016.9
20260503181700 61 202 1.0 10.0 0.00 0.00 0.00 39 1016.9
20260503181600 61 169 4.0 10.0 0.00 0.00 0.00 35 1016.8
20260503181501 61 175 3.0 10.0 0.00 0.00 0.00 35 1016.9
20260503181400 61 158 9.0 9.0 0.00 0.00 0.00 38 1016.9
20260503181300 61 319 1.0 8.0 0.00 0.00 0.00 39 1016.9
20260503181203 61 202 2.0 8.0 0.00 0.00 0.00 40 1016.9
20260503181059 61 215 1.0 8.0 0.00 0.00 0.00 40 1017.0
20260503181001 61 242 0.0 8.0 0.00 0.00 0.00 39 1017.0
20260503180902 61 175 3.0 8.0 0.00 0.00 0.00 39 1016.9
20260503180802 61 190 3.0 8.0 0.00 0.00 0.00 38 1016.9
20260503180700 61 200 3.0 9.0 0.00 0.00 0.00 36 1017.1
20260503180601 61 300 0.0 9.0 0.00 0.00 0.00 37 1017.1
20260503180459 62 150 5.0 9.0 0.00 0.00 0.00 38 1017.2
20260503180402 62 163 2.0 9.0 0.00 0.00 0.00 40 1017.2
20260503180302 61 193 3.0 9.0 0.00 0.00 0.00 38 1017.2
20260503180200 61 162 1.0 9.0 0.00 0.00 0.00 39 1017.3
20260503180100 61 313 2.0 9.0 0.00 0.00 0.00 38 1017.3
20260503180002 61 248 2.0 9.0 0.00 0.00 0.00 36 1017.3
20260503175802 61 215 6.0 9.0 0.00 0.00 0.00 40 1017.4
20260503175700 61 174 1.0 9.0 0.00 0.00 0.00 43 1017.3
20260503175601 61 180 5.0 9.0 0.00 0.00 0.00 37 1017.4
20260503175400 61 190 3.0 10.0 0.00 0.00 0.00 39 1017.3
20260503175304 61 181 5.0 8.0 0.00 0.00 0.00 38 1017.3
20260503175200 61 196 3.0 8.0 0.00 0.00 0.00 39 1017.3
20260503175100 61 307 0.0 9.0 0.00 0.00 0.00 40 1017.3
20260503174902 61 315 2.0 9.0 0.00 0.00 0.00 39 1017.2
20260503174802 61 147 3.0 9.0 0.00 0.00 0.00 37 1017.3
20260503174700 61 221 3.0 11.0 0.00 0.00 0.00 39 1017.3
20260503174600 61 227 0.0 11.0 0.00 0.00 0.00 36 1017.3
20260503174503 61 240 4.0 11.0 0.00 0.00 0.00 40 1017.3
20260503174300 61 212 0.0 11.0 0.00 0.00 0.00 39 1017.5
20260503174200 60 195 2.0 11.0 0.00 0.00 0.00 39 1017.4
20260503174059 60 196 5.0 11.0 0.00 0.00 0.00 39 1017.4
20260503174000 60 209 4.0 11.0 0.00 0.00 0.00 39 1017.4
20260503173700 60 297 4.0 11.0 0.00 0.00 0.00 38 1017.5
20260503173501 60 225 2.0 10.0 0.00 0.00 0.00 38 1017.5
20260503173400 60 298 5.0 9.0 0.00 0.00 0.00 41 1017.5
20260503173259 60 174 5.0 9.0 0.00 0.00 0.00 39 1017.5
20260503173202 60 86 1.0 9.0 0.00 0.00 0.00 38 1017.5
20260503173101 60 189 2.0 9.0 0.00 0.00 0.00 38 1017.6
20260503173000 60 216 2.0 9.0 0.00 0.00 0.00 37 1017.6
20260503172902 60 173 6.0 9.0 0.00 0.00 0.00 40 1017.6
20260503172801 60 222 2.0 9.0 0.00 0.00 0.00 37 1017.7
20260503172701 60 190 2.0 7.0 0.00 0.00 0.00 41 1017.7
20260503172600 60 257 7.0 9.0 0.00 0.00 0.00 39 1017.6
20260503172500 60 229 1.0 9.0 0.00 0.00 0.00 39 1017.5
20260503172400 60 171 7.0 9.0 0.00 0.00 0.00 39 1017.6
20260503172300 60 238 2.0 9.0 0.00 0.00 0.00 38 1017.7
20260503172202 60 186 4.0 9.0 0.00 0.00 0.00 39 1017.7
20260503172102 60 129 3.0 9.0 0.00 0.00 0.00 40 1017.8
20260503172002 60 210 5.0 9.0 0.00 0.00 0.00 38 1017.8
20260503171800 60 190 5.0 9.0 0.00 0.00 0.00 40 1017.9
20260503171701 60 196 5.0 9.0 0.00 0.00 0.00 40 1017.9
20260503171601 60 181 2.0 7.0 0.00 0.00 0.00 41 1018.0
20260503171459 60 195 3.0 7.0 0.00 0.00 0.00 39 1018.1
20260503171401 60 133 3.0 8.0 0.00 0.00 0.00 38 1018.1
20260503171200 60 131 3.0 10.0 0.00 0.00 0.00 38 1018.2
20260503171102 60 221 5.0 10.0 0.00 0.00 0.00 38 1018.2
20260503171000 60 150 3.0 10.0 0.00 0.00 0.00 39 1018.2
20260503170900 60 31 1.0 10.0 0.00 0.00 0.00 40 1018.2
20260503170801 60 157 0.0 10.0 0.00 0.00 0.00 39 1018.2
20260503170701 60 123 2.0 10.0 0.00 0.00 0.00 40 1018.2
20260503170600 60 200 2.0 10.0 0.00 0.00 0.00 40 1018.3
20260503170501 60 250 1.0 10.0 0.00 0.00 0.00 39 1018.3
20260503170401 60 200 4.0 10.0 0.00 0.00 0.00 41 1018.3
20260503170200 60 194 3.0 7.0 0.00 0.00 0.00 40 1018.3
20260503160159 59 288 2.0 9.0 0.00 0.00 0.00 46 1019.0
20260503151002 55 245 0.0 8.0 0.00 0.00 0.00 47 1019.5
20260503150901 55 142 4.0 8.0 0.00 0.00 0.00 48 1019.5
20260503150801 55 176 5.0 8.0 0.00 0.00 0.00 47 1019.5
20260503150701 55 223 2.0 8.0 0.00 0.00 0.00 48 1019.6
20260503150601 55 195 5.0 8.0 0.00 0.00 0.00 48 1019.6
20260503150502 55 180 4.0 8.0 0.00 0.00 0.00 48 1019.6
20260503150401 55 149 1.0 7.0 0.00 0.00 0.00 49 1019.6
20260503150301 55 192 5.0 7.0 0.00 0.00 0.00 49 1019.5
20260503150201 55 226 4.0 7.0 0.00 0.00 0.00 50 1019.5
20260503140300 51 300 0.0 5.0 0.00 0.00 0.00 58 1019.4
20260503140159 51 302 0.0 5.0 0.00 0.00 0.00 59 1019.4
20260503131359 47 15 1.0 9.0 0.00 0.00 0.00 58 1019.4
20260503131159 47 307 2.0 9.0 0.00 0.00 0.00 58 1019.4
20260503131059 47 236 2.0 9.0 0.00 0.00 0.00 57 1019.4
20260503130959 47 219 1.0 7.0 0.00 0.00 0.00 57 1019.3
20260503130759 47 204 2.0 6.0 0.00 0.00 0.00 59 1019.4
20260503130659 47 144 0.0 6.0 0.00 0.00 0.00 59 1019.4
20260503130500 46 209 1.0 6.0 0.00 0.00 0.00 61 1019.4
20260503130401 46 235 0.0 7.0 0.00 0.00 0.00 60 1019.4
20260503130259 46 277 2.0 9.0 0.00 0.00 0.00 60 1019.5
20260503130159 46 205 2.0 9.0 0.00 0.00 0.00 61 1019.4
20260503120200 43 126 2.0 7.0 0.00 0.00 0.00 64 1019.4
20260503110658 39 232 0.0 5.0 0.00 0.00 0.00 72 1018.7
20260503110558 39 185 3.0 5.0 0.00 0.00 0.00 72 1018.7
20260503110459 39 199 0.0 5.0 0.00 0.00 0.00 72 1018.7
20260503110359 39 184 1.0 5.0 0.00 0.00 0.00 72 1018.7
20260503110259 39 190 2.0 4.0 0.00 0.00 0.00 72 1018.7
20260503110158 39 169 4.0 4.0 0.00 0.00 0.00 72 1018.7